Powrót do katalogu

FENGYUN 1C DEB

AktywnyPO
NORAD 30201·DEBRIS·🇨🇳 China

Wystrzelony May 10, 1999 z Taiyuan Satellite Launch Center

Loading…

Następne Przeloty (najbliższe 24 godziny)

TLE

ŚwieżeSource: Space-Track

Epoka: Sep 14, 2026, 09:17 UTC

1 30201U 99025VJ  26257.38701778  .00000526  00000-0  25295-3 0  9993
2 30201  99.4364  55.7055 0028405 250.3298 109.4812 14.23432177 17375

Śledź FENGYUN 1C DEB w czasie rzeczywistym z AllMySat

Download on the App Store